Waarnemingen

Advertentie
Mijn weer
Cap Bear, Frankrijk (7749): temperatuur & dauwpunt: 20.09.2017 14:00:00 - 26.09.2017 14:00:00 (CEST)Cap Bear, Frankrijk (7749): windsnelheid & windstoten: 20.09.2017 14:00:00 - 26.09.2017 14:00:00 (CEST)Cap Bear, Frankrijk (7749): windrichting: 20.09.2017 14:00:00 - 26.09.2017 14:00:00 (CEST)Cap Bear, Frankrijk (7749): luchtdruk: 20.09.2017 14:00:00 - 26.09.2017 14:00:00 (CEST)Cap Bear, Frankrijk (7749): zicht: 20.09.2017 14:00:00 - 26.09.2017 14:00:00 (CEST)Cap Bear, Frankrijk (7749): neerslag: 20.09.2017 14:00:00 - 26.09.2017 14:00:00 (CEST)
Datum & Tijd tt [°C] td [°C] ff [km/u] ff [kn] fx [km/u] fx [kn] dd ppp [hPa] vv [km] rr [mm]
26.09.2017 14:00:00 22,5 13,6 30 16 41 22 N 1020,3 30 0,0
26.09.2017 13:00:00 22,1 14,0 31 17 39 21 N 1020,7 - 0,0
26.09.2017 12:00:00 20,1 12,8 28 15 36 19 NNW 1021,1 - 0,0
26.09.2017 11:00:00 18,9 13,7 34 18 54 29 NNW 1020,9 30 0,0
26.09.2017 10:00:00 17,8 12,0 43 23 54 29 NW 1020,5 - 0,0
26.09.2017 09:00:00 17,3 12,2 36 20 53 29 NW 1020,5 - 0,0
26.09.2017 08:00:00 16,9 12,0 33 18 61 33 NW 1020,2 - 0,0
26.09.2017 07:00:00 17,1 12,0 43 23 63 34 NW 1019,2 - 0,0
26.09.2017 06:00:00 17,1 11,8 33 18 45 25 WNW 1020,2 - 0,0
26.09.2017 05:00:00 17,3 12,2 26 14 49 26 NW 1020,3 20 0,0
26.09.2017 04:00:00 17,3 12,4 26 14 59 32 WNW 1020,4 - 0,0
26.09.2017 03:00:00 17,9 13,0 46 25 69 37 NW 1019,6 - 0,0
26.09.2017 02:00:00 17,8 13,9 35 19 60 33 NW 1020,2 - 0,0
26.09.2017 01:00:00 17,8 13,9 39 21 67 36 NW 1019,9 - 0,0
26.09.2017 00:00:00 18,3 13,8 45 24 68 37 NW 1019,9 - 0,0
25.09.2017 23:00:00 17,5 14,8 23 13 47 25 NW 1020,8 - 0,0
25.09.2017 22:00:00 17,8 14,3 23 12 55 30 NW 1020,6 - 1,2
25.09.2017 21:00:00 17,0 14,6 34 19 66 35 NW 1020,5 - 0,4
25.09.2017 20:00:00 17,8 14,3 38 21 63 34 NW 1019,5 - 0,2
25.09.2017 19:00:00 17,3 15,3 34 18 59 32 NW 1019,2 15 1,8
25.09.2017 18:00:00 18,2 15,1 39 21 63 34 WNW 1019,2 - 0,2
25.09.2017 17:00:00 18,9 15,0 31 17 56 30 NW 1018,5 15 0,0
25.09.2017 16:00:00 18,9 15,0 27 15 69 38 NW 1018,6 - 1,4
25.09.2017 15:00:00 21,1 14,5 36 20 51 28 NW 1018,7 - 0,0
25.09.2017 14:00:00 22,7 17,6 29 16 41 22 NNO 1018,0 18 0,0
25.09.2017 13:00:00 22,6 17,5 36 20 42 23 NNO 1017,7 - 0,0
25.09.2017 12:00:00 24,5 16,7 25 13 32 17 NNO 1018,0 - 0,0
25.09.2017 11:00:00 20,8 16,4 33 18 44 24 NNW 1018,0 20 0,0
25.09.2017 10:00:00 20,8 15,1 41 22 58 32 NNW 1018,0 - 0,0
25.09.2017 09:00:00 20,1 12,3 45 24 64 35 NW 1018,1 - 0,0
25.09.2017 08:00:00 18,5 11,1 45 24 62 33 NW 1017,6 20 0,0
25.09.2017 07:00:00 19,6 11,6 29 16 34 19 NNW 1016,7 - 0,0
25.09.2017 06:00:00 19,5 10,5 22 12 35 19 NW 1016,5 - 0,0
25.09.2017 05:00:00 19,6 11,1 29 16 35 19 NNW 1016,4 - 0,0
25.09.2017 04:00:00 19,6 11,6 18 10 27 14 NW 1016,7 - 0,0
25.09.2017 03:00:00 23,8 10,5 10 6 15 8 W 1016,9 - 0,0
25.09.2017 02:00:00 20,7 13,2 3 1 9 5 WZW 1017,2 - 0,0
25.09.2017 01:00:00 21,6 13,5 0 0 4 2 N 1017,5 - 0,0
25.09.2017 00:00:00 22,0 13,6 0 0 7 4 N 1017,7 - 0,0
24.09.2017 23:00:00 23,1 13,6 3 1 7 4 NO 1017,7 - 0,0
24.09.2017 22:00:00 24,2 13,4 5 3 21 11 NW 1017,6 - 0,0
24.09.2017 21:00:00 24,6 14,1 15 8 27 14 ZW 1017,2 - 0,0
24.09.2017 20:00:00 24,8 14,9 20 11 33 18 ZW 1017,0 - 0,0
24.09.2017 19:00:00 24,7 15,3 16 9 35 19 ZZW 1017,0 - 0,0
24.09.2017 18:00:00 22,5 18,1 29 16 35 19 ZZO 1017,4 - 0,0
24.09.2017 17:00:00 22,9 18,2 21 11 25 13 ZZO 1017,8 - 0,0
24.09.2017 16:00:00 22,1 17,0 16 9 23 13 ZZO 1018,4 - 0,0
24.09.2017 15:00:00 21,8 17,6 18 10 21 12 ZZO 1018,8 - 0,0
24.09.2017 14:00:00 21,2 17,0 16 9 19 10 ZZO 1019,2 - 0,0
24.09.2017 13:00:00 20,7 16,3 10 5 18 10 ZZO 1019,7 - 0,0
24.09.2017 12:00:00 20,0 16,0 6 3 10 6 ONO 1020,1 - 0,0
24.09.2017 11:00:00 18,6 15,5 8 4 10 5 N 1020,1 17 0,0
24.09.2017 10:00:00 17,3 14,6 7 4 11 6 NNW 1020,2 - 0,0
24.09.2017 09:00:00 16,3 14,5 5 3 13 7 NNW 1019,8 - 0,0
24.09.2017 08:00:00 15,9 14,1 12 6 25 14 NW 1019,7 20 0,0
24.09.2017 07:00:00 15,8 14,0 18 10 23 12 NW 1019,5 - 0,0
24.09.2017 06:00:00 16,6 14,8 9 5 13 7 NW 1019,4 - 0,0
24.09.2017 05:00:00 16,2 14,7 9 5 12 6 NNW 1019,4 20 0,0
24.09.2017 04:00:00 16,8 15,3 6 3 11 6 NW 1019,4 - 0,0
24.09.2017 03:00:00 16,5 15,2 4 2 17 9 OZO 1019,6 - 0,0
24.09.2017 02:00:00 16,0 14,9 9 5 13 7 NW 1019,8 - 0,0
24.09.2017 01:00:00 17,2 15,2 11 6 16 9 WNW 1020,1 - 0,0
24.09.2017 00:00:00 17,8 15,2 7 4 20 11 WNW 1020,3 - 0,0
23.09.2017 23:00:00 18,4 15,5 18 10 22 12 NW 1020,2 - 0,0
23.09.2017 22:00:00 17,8 15,4 18 10 20 11 NW 1020,2 - 0,0
23.09.2017 21:00:00 18,1 15,5 9 5 24 13 Z 1019,9 - 0,0
23.09.2017 20:00:00 18,6 16,4 24 13 29 15 ZZO 1019,5 12 0,0
23.09.2017 19:00:00 19,0 16,0 17 9 23 12 ZZO 1019,7 - 0,0
23.09.2017 18:00:00 19,1 15,8 15 8 22 12 ZO 1020,0 - 0,0
23.09.2017 17:00:00 19,2 15,9 16 8 23 12 ZO 1020,2 18 0,0
23.09.2017 16:00:00 19,9 15,9 13 7 25 14 ZO 1020,4 - 0,0
23.09.2017 15:00:00 20,7 15,9 12 6 21 12 ZO 1020,9 - 0,0
23.09.2017 14:00:00 19,5 15,4 11 6 19 10 O 1021,0 - 0,0
23.09.2017 13:00:00 19,4 15,9 9 5 17 9 ONO 1021,3 - 0,0
23.09.2017 12:00:00 20,4 16,4 6 3 11 6 NO 1021,6 - 0,0
23.09.2017 11:00:00 18,4 15,1 4 2 12 6 NNO 1021,7 - 0,0
23.09.2017 10:00:00 18,0 14,1 2 1 6 3 ZO 1021,9 - 0,0
23.09.2017 09:00:00 16,9 13,2 6 4 10 5 NW 1021,7 - 0,0
23.09.2017 08:00:00 16,9 12,6 8 4 10 6 NW 1021,3 15 0,0
23.09.2017 07:00:00 17,2 13,1 7 4 16 9 N 1021,1 - 0,0
23.09.2017 06:00:00 17,6 13,3 10 6 23 12 NNW 1020,8 - 0,0
23.09.2017 05:00:00 17,1 12,2 21 11 25 14 NNW 1020,6 - 0,0
23.09.2017 04:00:00 17,0 13,7 14 7 25 13 NNW 1020,8 - 0,0
23.09.2017 03:00:00 19,7 12,0 18 10 23 12 NW 1021,0 - 0,0
23.09.2017 02:00:00 20,2 11,9 18 10 28 15 NW 1021,3 - 0,0
23.09.2017 01:00:00 20,7 11,9 22 12 34 18 WNW 1021,3 - 0,0
23.09.2017 00:00:00 20,8 12,0 22 12 35 19 WNW 1021,5 - 0,0
22.09.2017 23:00:00 19,3 13,0 13 7 23 12 NW 1021,2 - 0,0
22.09.2017 22:00:00 19,2 13,8 19 10 22 12 NW 1021,0 - 0,0
22.09.2017 21:00:00 19,7 14,7 2 1 16 9 ZW 1020,7 - 0,0
22.09.2017 20:00:00 20,0 15,0 13 7 29 16 WNW 1020,1 15 0,0
22.09.2017 19:00:00 20,3 14,6 25 13 35 19 NNW 1019,5 - 0,0
22.09.2017 18:00:00 19,8 16,2 18 10 27 15 ZZO 1020,1 - 0,0
22.09.2017 17:00:00 19,9 14,9 21 11 25 14 ZZO 1020,5 15 0,0
22.09.2017 16:00:00 20,8 14,2 19 10 22 12 ZZO 1020,6 - 0,0
22.09.2017 15:00:00 21,3 14,5 16 9 22 12 ZO 1020,6 - 0,0
22.09.2017 14:00:00 21,6 14,0 11 6 18 10 ZO 1020,7 20 0,0
22.09.2017 13:00:00 20,6 14,0 10 5 17 9 ZO 1021,0 - 0,0
22.09.2017 12:00:00 20,2 14,1 8 4 16 9 ZO 1021,2 - 0,0
22.09.2017 11:00:00 19,3 13,2 7 4 13 7 ZZO 1021,2 20 0,0
22.09.2017 10:00:00 18,4 12,8 4 2 12 6 NNO 1021,0 - 0,0
22.09.2017 09:00:00 16,5 10,8 11 6 19 10 NW 1020,5 - 0,0
22.09.2017 08:00:00 15,3 10,7 16 8 24 13 NNW 1020,3 20 0,0
22.09.2017 07:00:00 15,1 10,5 20 11 26 14 NW 1019,9 - 0,0
22.09.2017 06:00:00 14,8 10,8 22 12 33 18 NW 1019,6 - 0,0
22.09.2017 05:00:00 15,4 11,2 21 11 25 13 NW 1019,7 20 0,0
22.09.2017 04:00:00 15,1 11,3 15 8 19 10 NW 1019,8 - 0,0
22.09.2017 03:00:00 15,3 11,3 12 7 20 11 NNW 1020,1 - 0,0
22.09.2017 02:00:00 14,9 11,9 12 6 17 9 NW 1020,1 - 0,0
22.09.2017 01:00:00 14,8 12,5 9 5 14 7 NNW 1020,0 - 0,0
22.09.2017 00:00:00 15,7 12,8 13 7 17 9 NNW 1019,6 - 0,0
21.09.2017 23:00:00 16,5 13,0 6 3 9 5 NW 1019,5 - 0,0
21.09.2017 22:00:00 16,7 13,0 5 3 8 4 NNW 1019,3 - 0,0
21.09.2017 21:00:00 16,9 12,8 3 1 8 5 NO 1018,9 - 0,0
21.09.2017 20:00:00 17,1 12,8 8 4 14 8 ZZO 1018,3 22 0,0
21.09.2017 19:00:00 17,5 12,8 13 7 16 8 ZZO 1017,9 - 0,0
21.09.2017 18:00:00 17,8 12,3 10 6 14 8 ZO 1017,8 - 0,0
21.09.2017 17:00:00 18,3 11,8 9 5 16 9 ZZO 1017,6 - 0,0
21.09.2017 16:00:00 18,8 11,4 8 5 17 9 ZO 1017,9 - 0,0
21.09.2017 15:00:00 18,0 10,8 10 5 19 10 O 1018,4 - 0,0
21.09.2017 14:00:00 18,4 10,7 11 6 19 10 O 1018,7 25 0,0
21.09.2017 13:00:00 17,9 10,8 13 7 20 11 O 1019,1 - 0,0
21.09.2017 12:00:00 20,6 12,0 11 6 15 8 NO 1019,3 - 0,0
21.09.2017 11:00:00 18,1 11,4 9 5 12 6 N 1019,5 - 0,0
21.09.2017 10:00:00 17,3 11,1 7 4 16 9 NNW 1019,4 - 0,0
21.09.2017 09:00:00 16,5 9,7 13 7 21 12 NW 1018,9 - 0,0
21.09.2017 08:00:00 15,3 8,8 15 8 22 12 WNW 1018,9 20 0,0
21.09.2017 07:00:00 15,3 8,1 19 10 25 14 WNW 1018,5 - 0,0
21.09.2017 06:00:00 15,4 8,6 22 12 29 15 NNW 1018,2 - 0,0
21.09.2017 05:00:00 16,2 7,7 24 13 26 14 NW 1018,2 20 0,0
21.09.2017 04:00:00 16,5 7,9 23 12 27 15 NW 1018,4 - 0,0
21.09.2017 03:00:00 16,6 8,0 13 7 16 9 NW 1018,7 - 0,0
21.09.2017 02:00:00 17,4 9,3 8 4 15 8 NW 1018,8 - 0,0
21.09.2017 01:00:00 17,6 9,7 12 6 18 10 NW 1018,9 - 0,0
21.09.2017 00:00:00 17,5 9,4 8 4 10 5 N 1018,9 - 0,0
20.09.2017 23:00:00 19,5 7,2 11 6 21 12 NW 1018,7 - 0,0
20.09.2017 22:00:00 19,6 8,6 15 8 24 13 WNW 1018,5 - 0,0
20.09.2017 21:00:00 20,7 9,6 5 3 40 22 W 1018,4 - 0,0
20.09.2017 20:00:00 20,2 10,9 23 13 35 19 ZZW 1018,0 - 0,0
20.09.2017 19:00:00 19,3 11,8 14 7 31 17 Z 1018,2 - 0,0
20.09.2017 18:00:00 19,1 11,4 17 9 19 10 ZZO 1018,4 - 0,0
20.09.2017 17:00:00 19,7 11,7 13 7 18 10 ZZO 1018,7 30 0,0
20.09.2017 16:00:00 21,0 9,6 10 5 17 9 ZZO 1019,3 - 0,0
20.09.2017 15:00:00 21,9 10,7 15 8 29 15 ONO 1019,6 - 0,0
20.09.2017 14:00:00 22,1 11,2 16 9 24 13 NO 1020,1 30 0,0

tt = temperatuur
td = dauwpunt
ff = windsnelheid
fx = windstoten
dd = windrichting
ppp = luchtdruk
vv = zicht
rr = neerslag

Weerstations in de omgeving